Location: Unspecified
(0.0000°N, 0.0000°E)
Time: 08:22:19
(UTC+00:00)

Explorer 11/Cluster Stage 4 - Pass Details

Date: 23 July 2020
Orbit: 467 x 1259 km, 28.8° (Epoch: 03 August)

Event Time Altitude Azimuth Distance (km) Brightness Sun altitude
Rises 12:54:11 0° 320° (NW) 3,047 9.9 66.9°
Reaches altitude 10° 12:56:37 10° 331° (NNW) 2,253 9.5 66.6°
Maximum altitude 13:01:24 32° 33° (NNE) 1,444 8.6 66.0°
Drops below altitude 10° 13:07:13 10° 94° (E) 2,764 9.3 65.2°
Sets 13:10:30 0° 103° (ESE) 3,852 9.9 64.7°
